STARLINK-2011 (47350 NORAD) Tracking and Keplerian Element Data

This shows tracking and keplerian element data for the satellite.

Feedback or suggestion? Click here.




ElementValue
Catalog47350
NameSTARLINK-2011
Epoch Orbit175
Epoch Day101.91668981
Epoch Year2021
RAAN189.691
Inclination53.0563
Eccentricity0.000115
Argument of Perigee79.1607
Mean Anonmoly259.0352
Mean Motion15.06409944
Decay Rate-0.00036054
L11 47350U 21005B 21101.91668981 -.00036054 00000-0 -24132-2 0 9994
L22 47350 53.0563 189.6910 0001150 79.1607 259.0352 15.06409944 1755

Live tracking and technical data element details for STARLINK-2011 (NORAD 47350). STARLINK-2011 can be tracked NOW for your location showing map with azimuth and elevation plus other details from your city location.

Track the satellite on the map from your city or location and see movement details for azimuth, elevation, latitude, longitude, range, height, and movement on the map or in text.







IsCatalogInMostPopularTable: catalog: 47350, numindb: 14
Update: records affected: 1



GetName: 47350 STARLINK-2011

Hit Count: updated at: Tue, 13 Apr 2021 04:25:35 GMT